{"data":{"norad_id":47750,"epoch":"2026-09-20T00:41:55.637088Z","epoch_age_seconds":66569,"freshness":"FRESH","line1":"1 47750U 21017AE  26263.02911617  .00038569  00000+0  11848-2 0  9994","line2":"2 47750  53.1598   8.9595 0002255   9.4365 350.6679 15.33365110307771","mean_motion":15.3336511,"eccentricity":0.0002255,"inclination_deg":53.1598,"raan_deg":8.9595,"arg_perigee_deg":9.4365,"mean_anomaly_deg":350.6679,"bstar":0.0011848,"rev_number":30777,"period_min":93.911097272847,"perigee_km":464.23757774866,"apogee_km":467.3241847131,"semimajor_km":6843.9178812309,"source":"CELESTRAK","updated_at":"2026-09-20T09:00:38.601861Z"}}